Temp
-7 -7 -7 -6 -6 -6 -6 -7 -7 -5 -6 -5 -5 -4 -5 -5 -4 -4 -5 -5 -4 -5 -4 -5 -4 -5 -5 -5 -5 -5 -5 -5 -5 -5 -5 -6 -6 -6 -5 -6 -6 -6 -6 -6
-7 -7 -7 -7 -7 -7 -7 -7 -7 -7 -6 -7 -5 -6 -5 -5 -5 -5 -6 -5 -5 -5 -4 -4 -4 -4 -5 -5 -5 -5 -5 -5 -5 -5 -6 -6 -5 -6 -6 -6 -6 -7 -6 -7
-8 -8 -7 -7 -7 -7 -7 -6 -7 -7 -8 -7 -7 -6 -7 -6 -5 -5 -4 -5 -6 -5 -5 -4 -4 -4 -4 -5 -5 -5 -5 -5 -5 -5 -6 -6 -6 -6 -6 -5 -5 -7 -6 -6
-8 -9 -8 -8 -7 -7 -7 -7 -8 -8 -7 -7 -5 -6 -6 -7 -6 -5 -5 -5 -6 -5 -5 -5 -5 -5 -4 -5 -5 -5 -5 -5 -5 -5 -5 -6 -6 -6 -6 -5 -6 -5 -6 -5
-9 -9 -8 -8 -8 -7 -7 -8 -9 -8 -7 -8 -8 -6 -7 -7 -6 -6 -6 -6 -7 -6 -5 -6 -5 -5 -5 -5 -5 -5 -4 -5 -5 -5 -5 -6 -6 -6 -6 -5 -5 -6 -5 -5
-10 -10 -9 -8 -9 -8 -9 -10 -9 -8 -8 -8 -7 -6 -6 -6 -6 -7 -6 -7 -7 -7 -6 -6 -5 -4 -5 -5 -5 -5 -5 -5 -5 -5 -5 -6 -6 -6 -7 -6 -5 -6 -5 -5
-10 -10 -10 -10 -10 -9 -9 -10 -9 -8 -7 -7 -7 -7 -7 -7 -8 -7 -7 -6 -6 -6 -7 -6 -5 -5 -5 -6 -6 -6 -6 -5 -6 -5 -5 -5 -6 -6 -6 -6 -6 -6 -5 -5
-10 -11 -10 -11 -9 -8 -9 -9 -9 -8 -8 -8 -9 -8 -8 -8 -8 -8 -7 -6 -6 -6 -7 -7 -6 -6 -5 -7 -7 -6 -6 -5 -6 -6 -5 -5 -6 -6 -6 -6 -6 -6 -6 -6
-11 -11 -11 -11 -10 -10 -9 -9 -8 -9 -9 -9 -9 -8 -8 -7 -8 -8 -9 -7 -7 -6 -6 -7 -7 -6 -6 -6 -7 -6 -6 -5 -5 -6 -6 -5 -6 -6 -6 -6 -6 -6 -6 -6
-12 -12 -11 -12 -11 -9 -10 -9 -9 -9 -9 -9 -8 -8 -8 -8 -8 -8 -7 -8 -7 -7 -7 -7 -7 -6 -5 -6 -6 -5 -6 -5 -5 -5 -6 -6 -6 -6 -6 -6 -6 -6 -6 -6
-12 -12 -12 -12 -11 -10 -9 -9 -9 -9 -9 -9 -8 -8 -7 -7 -7 -7 -6 -7 -7 -7 -8 -7 -7 -7 -6 -5 -5 -6 -6 -6 -6 -5 -6 -6 -6 -6 -6 -7 -6 -6 -6 -6
-11 -12 -12 -11 -10 -11 -11 -9 -9 -9 -10 -9 -9 -8 -8 -7 -7 -8 -6 -7 -7 -7 -8 -8 -8 -7 -6 -6 -5 -6 -6 -6 -7 -7 -6 -6 -6 -6 -6 -6 -6 -7 -6 -6
-12 -13 -12 -12 -12 -11 -11 -11 -9 -9 -10 -10 -10 -10 -9 -8 -9 -8 -7 -8 -8 -8 -7 -8 -8 -8 -7 -6 -6 -6 -6 -7 -6 -7 -7 -7 -6 -6 -7 -7 -7 -7 -7 -7
-13 -12 -12 -12 -13 -12 -11 -11 -10 -9 -10 -10 -9 -9 -9 -10 -9 -9 -8 -7 -7 -8 -7 -8 -8 -8 -8 -7 -8 -7 -7 -6 -6 -6 -7 -7 -7 -7 -7 -7 -7 -7 -7 -7
-13 -13 -13 -13 -12 -11 -11 -11 -11 -10 -11 -10 -10 -9 -9 -10 -9 -9 -9 -8 -8 -9 -8 -8 -9 -8 -8 -8 -7 -7 -7 -7 -7 -6 -6 -6 -7 -7 -7 -7 -7 -7 -7 -7
-14 -13 -12 -12 -13 -12 -11 -10 -12 -11 -12 -10 -10 -10 -9 -10 -9 -8 -8 -9 -9 -9 -10 -9 -9 -9 -8 -7 -8 -7 -7 -7 -6 -6 -6 -6 -6 -6 -7 -8 -7 -8 -8 -8
-14 -12 -13 -13 -12 -13 -12 -11 -11 -12 -13 -10 -9 -9 -10 -9 -9 -9 -9 -9 -9 -9 -9 -9 -9 -10 -10 -9 -7 -7 -6 -6 -7 -6 -7 -7 -6 -6 -7 -7 -7 -8 -7 -7
-14 -14 -13 -14 -13 -13 -13 -12 -11 -13 -13 -11 -10 -9 -10 -11 -9 -11 -10 -10 -10 -10 -10 -9 -9 -10 -9 -9 -8 -8 -7 -7 -7 -8 -8 -8 -7 -7 -7 -7 -7 -8 -7 -7
-16 -15 -15 -14 -14 -13 -13 -14 -14 -15 -14 -11 -11 -10 -10 -10 -10 -11 -11 -11 -10 -10 -10 -10 -10 -10 -10 -10 -9 -9 -8 -8 -8 -8 -8 -8 -8 -8 -8 -8 -7 -7 -8 -7
-15 -15 -15 -15 -15 -15 -14 -13 -14 -15 -13 -12 -12 -11 -11 -10 -10 -10 -10 -10 -10 -11 -10 -10 -10 -10 -10 -10 -10 -10 -9 -9 -8 -8 -8 -8 -8 -8 -8 -7 -8 -8 -8 -8
-15 -15 -15 -15 -16 -16 -15 -15 -15 -15 -14 -13 -12 -12 -12 -11 -11 -11 -10 -11 -11 -10 -10 -10 -10 -10 -10 -10 -10 -10 -10 -10 -9 -9 -9 -8 -8 -8 -8 -8 -7 -7 -7 -7
-16 -15 -15 -16 -16 -16 -15 -15 -15 -15 -15 -13 -12 -11 -11 -12 -12 -12 -12 -12 -12 -12 -11 -11 -11 -10 -10 -10 -10 -10 -10 -10 -10 -9 -9 -9 -9 -9 -8 -8 -8 -8 -7 -7
-16 -16 -16 -16 -15 -15 -14 -15 -15 -16 -16 -16 -16 -15 -13 -12 -13 -14 -13 -12 -12 -12 -12 -11 -11 -10 -11 -11 -10 -10 -10 -10 -10 -10 -10 -9 -9 -9 -9 -8 -8 -8 -7 -8
-17 -16 -16 -16 -16 -16 -15 -14 -15 -16 -16 -16 -16 -15 -14 -14 -14 -14 -14 -13 -13 -13 -13 -12 -12 -12 -11 -11 -10 -10 -10 -10 -10 -10 -10 -10 -10 -10 -9 -9 -9 -9 -8 -8
-17 -17 -17 -17 -17 -17 -16 -16 -16 -16 -16 -16 -16 -16 -15 -15 -15 -14 -14 -14 -14 -14 -14 -14 -13 -13 -13 -12 -12 -12 -11 -11 -11 -11 -11 -11 -11 -10 -10 -10 -10 -9 -9 -9
-18 -18 -17 -18 -17 -17 -16 -16 -16 -16 -16 -15 -16 -16 -15 -15 -15 -15 -14 -14 -14 -14 -14 -14 -14 -13 -13 -13 -13 -13 -12 -12 -12 -12 -12 -12 -11 -11 -11 -11 -11 -10 -10 -10
Height
5846 5853 5858 5866 5872 5876 5880 5884 5887 5888 5887 5892 5895 5895 5898 5900 5902 5903 5907 5910 5912 5915 5917 5921 5925 5927 5930 5931 5934 5935 5938 5939 5940 5940 5941 5942 5944 5944 5944 5945 5945 5945 5946 5946
5841 5848 5856 5860 5867 5872 5876 5880 5879 5884 5884 5883 5872 5887 5894 5897 5899 5901 5905 5907 5912 5915 5917 5920 5926 5927 5930 5932 5934 5935 5938 5940 5940 5942 5943 5944 5945 5946 5944 5946 5948 5948 5947 5948
5836 5847 5850 5856 5861 5866 5872 5875 5874 5880 5879 5879 5870 5882 5890 5895 5898 5899 5903 5905 5908 5913 5916 5919 5923 5928 5929 5932 5933 5934 5938 5939 5941 5943 5944 5945 5945 5947 5947 5947 5951 5951 5948 5948
5831 5839 5842 5850 5857 5862 5867 5873 5875 5874 5881 5880 5878 5880 5883 5888 5896 5898 5900 5903 5907 5912 5916 5917 5921 5926 5928 5931 5932 5933 5936 5938 5940 5943 5944 5945 5947 5948 5947 5948 5950 5953 5952 5950
5829 5831 5836 5842 5852 5858 5867 5868 5873 5873 5879 5876 5876 5882 5882 5888 5891 5895 5898 5901 5904 5909 5914 5916 5918 5922 5925 5928 5931 5932 5934 5936 5939 5942 5945 5946 5946 5946 5948 5949 5950 5951 5952 5953
5824 5827 5832 5838 5845 5854 5864 5866 5869 5871 5876 5875 5877 5877 5880 5884 5889 5893 5897 5898 5901 5905 5910 5913 5914 5916 5924 5926 5928 5931 5932 5934 5937 5941 5944 5945 5947 5947 5947 5949 5951 5952 5953 5954
5817 5822 5826 5832 5838 5847 5854 5858 5863 5867 5869 5875 5877 5875 5882 5884 5887 5890 5894 5898 5897 5902 5906 5910 5912 5913 5919 5923 5926 5929 5931 5931 5934 5937 5942 5945 5947 5948 5948 5949 5952 5952 5954 5956
5813 5816 5821 5826 5830 5842 5849 5852 5857 5862 5868 5872 5876 5873 5881 5884 5883 5881 5885 5890 5897 5897 5902 5905 5908 5911 5914 5918 5922 5926 5928 5929 5931 5934 5939 5942 5945 5947 5949 5951 5951 5952 5955 5956
5808 5816 5823 5822 5827 5839 5846 5846 5857 5860 5862 5871 5871 5872 5875 5882 5883 5883 5882 5881 5887 5893 5899 5902 5904 5906 5910 5914 5919 5921 5925 5927 5928 5930 5934 5939 5941 5943 5945 5949 5952 5953 5954 5960
5803 5808 5812 5819 5827 5832 5834 5843 5850 5853 5860 5864 5864 5866 5867 5873 5878 5881 5882 5882 5883 5889 5894 5898 5901 5905 5906 5911 5915 5917 5921 5924 5926 5928 5929 5933 5938 5940 5941 5946 5952 5952 5952 5957
5794 5801 5811 5814 5818 5825 5833 5839 5844 5848 5853 5855 5857 5857 5862 5862 5868 5874 5875 5879 5886 5889 5894 5894 5897 5899 5898 5906 5911 5914 5919 5920 5922 5924 5925 5929 5933 5936 5939 5942 5948 5952 5953 5952
5796 5800 5800 5810 5816 5821 5827 5835 5842 5845 5850 5848 5849 5852 5853 5855 5861 5867 5871 5876 5880 5886 5887 5890 5892 5894 5893 5900 5904 5898 5913 5913 5914 5919 5922 5925 5929 5932 5934 5937 5942 5947 5951 5954
5794 5792 5796 5804 5810 5815 5821 5830 5834 5840 5841 5839 5842 5844 5845 5850 5854 5861 5866 5872 5874 5878 5884 5885 5890 5892 5895 5896 5897 5900 5901 5905 5902 5909 5919 5919 5925 5927 5930 5932 5937 5942 5948 5950
5786 5785 5790 5798 5802 5807 5812 5820 5832 5836 5835 5830 5836 5839 5838 5843 5851 5857 5859 5864 5868 5872 5877 5881 5885 5889 5892 5894 5892 5899 5899 5901 5904 5906 5911 5912 5917 5921 5925 5928 5933 5937 5941 5946
5781 5787 5788 5794 5798 5802 5807 5816 5826 5828 5824 5829 5831 5835 5835 5842 5847 5855 5857 5858 5861 5865 5870 5874 5878 5883 5886 5889 5893 5895 5897 5897 5897 5895 5903 5908 5913 5913 5919 5922 5926 5931 5934 5938
5775 5782 5785 5787 5794 5799 5803 5812 5819 5820 5816 5821 5825 5829 5832 5838 5843 5848 5850 5854 5857 5860 5864 5868 5871 5875 5881 5884 5887 5891 5896 5896 5895 5896 5899 5905 5905 5908 5911 5916 5917 5924 5929 5932
5772 5777 5781 5782 5787 5792 5799 5801 5807 5811 5807 5815 5822 5825 5826 5830 5837 5843 5847 5852 5856 5858 5861 5864 5866 5869 5872 5879 5884 5886 5889 5892 5890 5891 5895 5901 5900 5905 5905 5909 5913 5918 5923 5926
5768 5772 5774 5779 5782 5790 5791 5795 5800 5802 5799 5808 5821 5821 5819 5826 5833 5838 5842 5845 5849 5853 5856 5859 5863 5864 5866 5869 5873 5878 5880 5882 5885 5888 5891 5894 5896 5898 5902 5907 5908 5912 5917 5921
5761 5765 5768 5772 5777 5783 5784 5788 5792 5790 5794 5806 5812 5814 5813 5823 5833 5832 5836 5839 5843 5848 5851 5853 5856 5859 5860 5862 5866 5870 5874 5876 5879 5882 5885 5889 5892 5896 5898 5900 5904 5905 5910 5914
5756 5758 5762 5764 5768 5771 5776 5785 5789 5787 5792 5799 5802 5808 5813 5815 5822 5829 5830 5835 5839 5841 5842 5845 5849 5852 5855 5855 5857 5863 5869 5870 5872 5875 5877 5881 5885 5887 5890 5893 5897 5900 5901 5904
5752 5753 5756 5758 5760 5762 5771 5777 5781 5780 5778 5785 5792 5797 5802 5808 5811 5815 5825 5828 5829 5832 5833 5836 5839 5843 5847 5849 5850 5851 5856 5862 5865 5867 5870 5872 5875 5878 5881 5884 5887 5890 5893 5896
5746 5748 5750 5753 5754 5757 5761 5767 5772 5774 5773 5779 5779 5785 5795 5800 5801 5803 5808 5811 5816 5819 5823 5826 5828 5832 5835 5837 5840 5844 5846 5849 5854 5856 5859 5861 5864 5866 5869 5871 5875 5878 5881 5885
5740 5742 5744 5747 5747 5749 5753 5759 5763 5767 5769 5769 5773 5775 5781 5785 5787 5788 5794 5799 5803 5807 5810 5813 5815 5818 5821 5824 5827 5830 5834 5836 5839 5844 5847 5850 5853 5855 5857 5860 5861 5864 5868 5872
5734 5734 5737 5739 5740 5741 5745 5750 5755 5758 5762 5763 5765 5768 5769 5772 5774 5778 5781 5785 5790 5793 5795 5799 5801 5804 5807 5809 5813 5817 5819 5822 5824 5826 5829 5834 5838 5841 5844 5847 5849 5852 5854 5856
5727 5727 5731 5731 5731 5732 5735 5738 5742 5747 5752 5754 5757 5756 5756 5761 5765 5768 5773 5774 5778 5780 5783 5786 5789 5792 5794 5796 5798 5801 5804 5806 5809 5811 5814 5817 5819 5822 5826 5829 5832 5836 5839 5841
5720 5719 5722 5724 5723 5724 5725 5728 5731 5734 5737 5742 5746 5748 5749 5749 5753 5759 5762 5763 5764 5768 5771 5775 5776 5779 5781 5783 5786 5787 5790 5791 5793 5795 5797 5800 5802 5805 5808 5811 5814 5817 5821 5823
Wind_Speed
37 37 36 28 24 22 19 14 16 27 30 21 13 13 11 7 5 21 22 14 14 13 14 15 13 11 9 10 11 9 6 4 3 3 6 7 9 8 9 10 10 8 9 9
36 36 34 31 28 26 25 20 24 23 27 29 27 21 17 11 10 13 18 19 14 13 12 12 14 14 13 11 11 12 9 7 4 5 4 6 9 7 6 8 9 11 11 11
38 31 34 35 33 32 30 30 30 24 30 29 18 15 20 17 14 17 19 26 24 17 14 11 14 15 15 13 12 14 12 10 7 4 2 4 4 7 5 4 8 11 10 11
36 34 36 34 36 35 33 32 27 29 23 27 27 16 25 22 15 14 16 11 21 19 13 12 12 15 17 15 13 14 13 13 10 7 4 3 8 4 4 1 4 6 11 12
35 38 40 37 35 36 33 29 20 24 18 20 22 23 12 10 17 17 14 15 20 17 15 16 14 15 19 17 15 14 15 14 12 10 6 5 5 7 4 3 5 3 6 9
34 35 39 37 34 38 34 22 26 28 23 32 18 22 3 18 21 21 24 20 20 19 19 20 18 16 16 17 16 15 16 14 13 12 10 6 5 9 9 6 4 5 2 5
34 38 36 38 36 40 46 35 31 33 28 27 18 20 21 19 18 23 24 27 22 21 21 23 19 17 16 15 16 16 16 16 14 15 12 10 7 7 8 8 7 4 3 4
37 39 39 39 44 40 49 38 29 23 18 14 11 25 27 23 23 27 28 27 22 19 20 20 20 20 20 20 19 18 19 19 16 17 16 13 10 10 10 12 11 7 4 5
28 29 26 36 37 35 47 48 39 19 16 19 20 26 28 19 25 26 28 14 20 15 21 23 20 24 20 18 20 22 23 23 21 20 19 17 14 12 10 9 10 10 10 4
30 32 29 24 27 39 50 52 41 35 23 24 25 29 33 29 25 25 25 24 7 13 18 29 26 26 22 21 22 25 24 25 24 23 21 20 17 15 13 11 12 12 12 9
34 37 28 21 29 40 44 49 48 38 35 31 29 28 30 34 32 28 26 25 21 18 21 25 21 29 31 24 20 26 24 24 24 25 24 23 22 19 16 13 11 13 14 13
42 30 36 31 25 29 41 42 48 43 33 35 31 29 27 30 23 21 25 27 24 24 21 21 19 20 26 29 34 37 24 29 32 27 24 23 24 22 20 17 14 12 12 15
37 35 32 31 29 34 40 38 47 48 40 36 35 34 38 31 33 23 31 25 25 26 26 26 23 23 23 15 17 18 24 28 36 30 27 24 24 26 24 21 16 14 14 14
41 33 27 30 24 30 40 46 43 48 48 38 32 35 40 29 27 28 38 36 29 31 30 30 26 24 23 23 16 16 17 27 32 36 27 24 27 28 29 25 21 18 18 18
42 34 28 28 26 28 34 41 40 44 44 43 36 31 30 21 20 25 29 33 28 31 30 31 29 28 26 23 20 17 17 17 16 30 36 29 33 29 27 28 26 24 23 21
41 44 44 33 26 28 30 34 47 47 38 53 41 23 21 25 22 22 23 27 26 29 31 32 34 33 31 30 29 26 23 18 16 16 20 26 27 18 26 38 28 26 26 25
39 49 34 31 34 30 28 35 39 51 43 58 55 47 29 22 19 26 25 22 20 22 29 33 36 38 38 36 35 34 31 29 25 19 18 18 18 17 21 16 26 24 25 26
40 49 53 44 36 34 34 35 40 44 44 54 57 57 50 28 22 20 27 29 31 29 26 30 35 38 40 39 36 34 32 30 30 29 28 22 19 18 11 19 23 23 22 25
19 40 50 51 50 46 40 39 34 27 34 47 49 57 63 52 40 22 31 32 33 32 34 33 32 36 40 41 39 38 37 37 35 35 33 33 32 28 25 23 20 20 25 25
21 23 25 25 51 44 48 45 37 26 38 42 47 48 57 56 55 50 43 34 28 29 31 33 35 39 41 41 42 40 39 40 41 41 41 39 38 36 34 32 29 28 27 27
20 20 21 24 27 34 33 46 40 33 40 44 48 46 47 51 55 55 51 52 53 50 50 49 49 46 43 44 47 47 44 42 44 45 44 43 42 40 40 38 37 35 34 34
22 24 24 23 29 35 37 31 32 32 33 40 47 53 53 51 52 53 54 55 54 54 52 51 52 52 52 51 51 51 49 47 46 46 47 47 46 46 45 45 42 40 40 40
20 22 24 30 31 32 34 35 39 32 29 33 37 38 40 48 52 52 51 51 52 54 55 55 56 57 56 54 54 54 53 52 51 49 48 48 48 48 49 49 49 49 47 46
20 21 21 24 29 36 35 32 32 37 40 43 43 41 42 39 39 41 43 47 50 49 52 54 55 56 58 58 59 58 56 56 55 54 53 53 52 51 52 52 52 51 52 52
27 27 23 23 25 29 33 36 36 34 33 33 35 40 43 42 42 39 37 40 38 39 41 43 47 51 53 54 55 56 57 57 57 57 57 56 55 56 56 56 56 56 56 56
27 32 30 29 31 29 33 33 32 35 37 37 37 38 41 43 42 41 40 41 44 44 44 41 41 43 44 45 48 50 51 51 52 53 54 55 56 56 56 57 58 59 59 60
Wind_Direction
210 213 211 210 209 209 195 197 228 219 243 235 195 230 227 208 190 205 204 215 224 202 213 197 187 199 202 202 210 217 195 165 129 108 92 76 74 75 82 93 103 94 95 100
208 210 209 205 202 203 199 179 238 248 243 258 206 212 219 213 211 190 208 216 229 221 224 214 200 199 199 209 205 213 201 181 176 85 96 109 96 91 71 86 102 111 123 115
210 207 209 208 199 198 200 193 221 239 250 242 280 272 216 217 205 200 211 230 229 213 212 220 213 203 210 206 206 217 209 200 202 141 85 105 144 98 97 74 101 118 114 106
209 208 204 203 204 201 197 200 212 233 239 265 258 266 208 185 196 198 196 208 219 219 218 226 219 206 210 209 212 216 212 216 208 191 164 119 135 103 107 64 82 110 119 118
206 205 209 199 203 202 191 204 217 240 253 270 258 251 253 215 205 215 199 200 206 220 214 224 225 209 214 205 212 217 216 218 218 205 196 179 141 116 134 186 113 68 113 119
208 206 211 200 200 201 174 188 224 232 247 241 219 232 234 242 200 239 203 205 209 217 223 223 229 220 198 212 211 217 222 211 224 218 206 202 179 171 156 181 160 149 124 114
205 211 201 204 204 196 184 189 206 216 231 231 221 243 253 254 268 250 235 230 203 213 227 218 233 228 190 206 216 217 222 211 211 222 211 213 190 202 188 165 201 168 179 136
213 209 203 206 209 196 185 190 193 204 219 201 213 243 252 261 264 267 262 205 209 202 216 212 223 221 208 200 215 213 219 217 209 216 210 211 202 208 210 182 181 174 201 204
207 214 219 223 217 197 187 197 196 201 212 240 237 247 252 263 258 275 297 210 195 209 219 204 212 218 212 185 212 214 218 219 212 216 213 205 207 218 217 205 189 184 199 215
198 204 200 228 225 211 195 198 188 201 195 214 227 240 250 259 261 261 273 275 290 244 258 219 212 222 210 208 203 222 216 223 220 215 215 212 208 213 216 211 193 191 193 180
211 192 203 214 220 220 209 202 198 196 197 219 220 237 243 245 251 247 256 264 271 271 253 205 221 224 222 224 225 214 221 222 226 227 217 218 206 213 219 211 203 198 198 195
208 198 185 213 224 217 208 203 200 199 200 212 228 237 237 237 231 226 253 260 268 259 253 255 256 244 251 231 223 214 216 255 231 223 222 220 218 213 220 217 204 197 209 203
202 204 200 205 213 211 209 205 204 202 205 216 230 238 243 222 206 212 242 245 251 249 244 250 249 250 265 226 193 229 240 242 215 216 220 212 222 214 221 223 211 205 201 217
198 200 182 190 201 211 206 210 211 209 215 227 227 237 247 259 246 232 222 241 239 238 238 245 251 253 255 259 269 270 265 239 253 234 217 208 218 218 218 219 216 211 210 206
206 208 197 179 194 209 212 211 208 213 219 222 233 238 239 245 234 241 217 219 228 230 235 243 249 251 257 257 255 265 275 273 259 217 221 216 217 214 213 218 221 218 216 218
208 208 215 184 189 212 218 215 209 218 229 224 226 218 218 219 224 221 218 219 228 230 232 240 250 255 251 254 260 260 265 245 228 222 226 221 213 269 228 225 215 223 222 221
218 213 212 193 196 197 213 208 204 213 227 228 226 232 243 232 233 231 228 228 235 244 242 239 246 252 256 255 254 257 257 252 254 224 196 218 219 244 235 240 211 218 228 230
222 223 225 221 220 211 201 210 214 210 226 227 227 235 244 241 245 207 225 226 231 237 244 247 248 254 260 262 262 263 264 264 264 264 265 262 249 252 246 231 227 226 234 237
226 221 229 231 232 224 210 201 207 224 224 227 225 230 238 241 234 248 223 227 237 242 246 248 252 254 258 261 261 262 263 263 262 263 262 259 262 264 265 266 250 245 233 237
234 226 225 229 226 226 223 218 216 223 235 232 234 232 235 243 241 237 243 242 243 252 254 253 253 254 255 259 260 257 254 258 260 261 261 259 258 260 259 257 254 254 255 249
234 235 229 227 228 228 221 232 228 216 228 237 235 236 234 236 243 249 244 249 253 254 255 255 256 257 257 259 260 262 260 254 255 258 260 262 262 259 258 255 254 252 252 253
240 240 234 228 226 225 226 219 219 223 232 240 246 243 237 237 242 248 247 247 247 248 249 252 255 256 258 259 259 259 261 262 261 259 259 260 261 263 263 263 259 256 255 252
254 245 246 238 235 235 237 234 227 228 229 242 247 250 249 246 246 250 251 252 253 254 254 255 255 256 258 259 259 259 260 261 261 260 259 259 258 259 261 262 263 262 259 257
259 257 255 248 246 245 246 243 236 236 238 240 246 248 251 250 249 248 251 254 255 255 255 255 257 258 259 260 260 260 261 261 263 264 264 263 262 262 261 261 261 262 262 262
261 258 250 253 249 249 247 247 247 244 241 241 240 243 245 246 247 250 248 248 249 251 253 255 257 258 259 259 261 262 263 264 264 264 264 264 264 264 264 264 263 263 263 263
257 260 259 251 252 249 250 249 252 251 250 247 242 242 246 250 252 249 248 248 249 251 251 253 253 253 253 254 256 258 259 261 262 264 265 265 265 265 263 263 263 263 262 263